GFSSE_500_rhum_105.txt.gz
RH
8 6 6 6 6 7 7 8 9 9 9 4 2 2 3 3 3 3 3 4 6 10 11 12 12 11 14 34 61 68 70 63 61 62 55 42 37 35 22 24 18 16 19
8 7 7 8 8 7 7 8 9 7 4 2 2 3 4 4 5 6 5 4 3 4 9 12 15 14 15 32 58 76 76 75 72 62 65 63 53 30 26 18 16 15 16
8 10 12 12 9 9 9 9 10 6 3 2 2 4 5 6 7 8 9 12 12 6 5 15 21 24 23 32 69 76 77 77 73 65 68 69 55 36 24 10 11 14 19
12 15 13 13 11 10 10 12 10 3 2 2 3 5 6 9 11 12 13 22 54 37 25 12 26 24 25 44 63 72 81 80 70 66 65 54 42 32 14 10 12 17 24
16 16 15 14 13 12 15 14 6 4 4 4 4 5 9 10 11 14 19 31 59 68 56 39 11 24 29 38 50 72 89 80 58 44 38 64 33 24 25 12 16 19 26
19 18 17 17 14 14 20 12 6 6 6 5 5 5 7 8 9 31 27 39 63 87 90 99 48 21 40 46 47 68 92 90 56 48 32 50 16 21 18 16 18 31 40
19 19 19 20 14 15 19 20 12 9 8 8 8 6 7 8 13 21 50 42 62 84 97 96 97 84 31 26 70 94 100 94 81 59 65 34 42 23 19 25 25 41 51
20 18 20 20 17 19 23 22 15 12 11 10 10 12 8 19 28 23 36 32 78 38 66 87 91 94 95 43 53 90 97 96 76 46 46 13 23 26 20 38 41 61 84
24 20 20 23 20 20 25 24 24 20 17 14 14 16 19 22 42 48 32 37 45 44 56 64 66 89 95 86 61 82 94 93 64 44 19 15 17 23 19 21 44 90 46
26 24 25 25 26 23 27 27 30 30 26 16 14 11 12 23 28 25 41 45 50 35 40 53 62 85 88 95 93 91 88 76 38 23 18 32 18 23 22 32 70 90 81
32 29 30 29 28 25 24 27 34 30 32 22 11 9 11 19 19 20 20 32 28 33 37 56 61 90 94 97 97 97 85 56 20 15 16 20 20 38 54 82 78 57 74
36 32 31 32 33 29 24 26 32 30 32 24 9 8 9 14 20 22 19 20 28 40 51 69 89 95 97 97 98 96 78 51 17 17 20 32 49 62 86 94 53 76 83
39 35 32 35 37 34 28 26 28 26 29 21 8 8 9 14 19 20 22 23 25 39 57 83 95 97 96 97 96 92 83 24 18 17 26 34 54 84 96 90 78 78 84
44 39 34 36 42 39 36 31 30 28 30 21 8 8 9 11 16 31 27 24 32 46 43 78 87 95 95 96 96 88 86 40 19 21 39 53 76 92 74 62 81 84 86
44 43 41 37 48 43 39 35 34 31 31 18 8 7 8 14 25 31 26 32 34 72 90 94 79 97 95 96 91 97 98 64 45 56 62 73 90 93 88 89 92 90 90
40 46 47 43 52 48 43 39 36 31 30 13 9 9 10 14 21 30 29 27 41 76 98 91 83 98 97 98 94 89 88 91 86 88 83 83 94 93 94 89 93 91 90
45 46 50 48 50 51 48 45 41 34 28 13 14 16 16 17 23 28 31 34 48 94 97 91 86 97 97 96 96 95 56 73 85 95 97 95 94 96 85 93 95 87 89
46 55 54 51 47 44 50 50 44 35 22 19 20 22 25 28 27 26 26 28 79 96 89 96 97 96 96 97 98 96 76 84 98 95 99 97 96 89 84 90 96 93 92
39 42 45 55 55 51 55 54 46 37 20 21 21 19 22 26 26 25 26 26 54 95 96 93 97 96 97 97 96 93 98 100 90 82 95 96 92 93 78 88 94 94 93
35 31 27 53 62 58 56 59 48 38 18 23 22 21 20 24 24 24 25 21 40 92 97 97 97 97 97 97 96 96 97 94 74 80 92 92 90 92 92 94 100 99 89
26 24 20 47 70 63 57 62 52 39 17 21 19 18 17 19 25 27 26 22 27 75 96 97 97 97 96 96 97 95 81 73 65 79 93 75 68 70 72 82 95 97 98
23 27 19 38 61 70 66 67 54 38 18 18 17 15 14 14 15 32 26 21 24 48 97 92 96 97 95 96 94 88 78 74 74 80 90 92 90 89 86 96 100 96 98
16 21 16 31 60 72 61 69 55 39 19 19 15 13 13 9 15 33 32 19 28 70 94 97 95 96 97 96 95 96 98 96 99 99 96 96 90 81 82 98 97 97 94
9 13 13 23 62 80 69 68 59 37 18 19 13 13 14 12 14 33 36 21 37 80 95 95 96 97 97 97 96 98 98 96 93 96 93 94 95 95 99 95 98 97 96
8 10 12 25 54 87 89 75 60 36 20 17 14 14 17 14 14 44 41 36 89 83 97 96 93 97 96 96 96 97 96 96 96 94 96 95 97 95 97 99 97 96 97
5 6 11 25 58 95 97 81 62 38 20 16 14 14 15 14 16 48 40 46 83 72 75 94 96 97 97 96 99 97 96 97 96 96 97 94 95 95 94 95 92 92 95

GFSSE_500_rhum_108.txt.gz
RH
8 5 5 5 5 6 6 7 8 9 8 6 4 2 2 3 3 3 3 2 2 4 8 11 12 12 12 12 21 36 54 60 62 65 66 60 48 21 26 20 18 20 19
11 8 6 5 6 7 7 8 9 10 8 4 3 3 3 3 3 4 5 6 6 4 3 6 10 12 12 16 31 44 60 66 67 68 64 63 59 33 39 26 15 14 12
14 9 8 7 8 8 8 8 9 10 8 4 2 2 4 5 5 7 8 11 16 14 9 5 9 16 18 19 33 54 67 77 76 72 70 61 71 56 47 26 18 9 11
19 14 11 10 10 11 10 8 10 10 6 3 4 4 6 6 6 8 10 20 20 44 47 29 19 20 28 26 36 48 73 87 80 76 71 63 68 53 40 23 11 9 12
17 15 12 13 13 13 12 10 10 11 6 6 6 6 6 5 7 8 16 24 30 43 89 64 40 28 38 30 37 57 72 86 81 74 64 66 51 57 30 18 16 11 15
18 16 15 14 16 16 14 12 12 14 9 8 8 8 7 6 7 8 11 19 51 76 92 96 90 47 23 38 38 68 77 86 83 68 53 54 32 70 19 35 28 14 18
18 19 16 16 18 19 17 14 14 16 14 11 9 9 9 7 17 21 17 24 43 54 58 84 97 95 59 25 38 50 75 93 92 70 43 42 31 23 22 30 19 19 29
20 20 18 18 17 20 20 16 17 17 18 17 16 13 13 19 28 54 71 36 35 34 53 68 86 93 94 87 34 41 58 92 94 85 62 66 46 16 50 17 28 30 33
21 22 21 19 19 21 24 19 19 19 20 22 23 20 18 34 32 32 33 50 42 45 52 70 80 87 79 95 90 40 70 90 93 89 83 56 48 15 32 22 23 38 38
25 26 25 23 20 24 27 24 23 22 20 21 24 25 30 16 26 34 28 20 28 57 50 63 73 79 92 76 96 87 65 90 85 87 63 44 16 14 21 43 20 50 73
32 28 27 26 24 23 28 28 27 24 22 22 26 26 22 29 16 30 44 25 29 36 38 37 45 46 60 82 94 97 96 90 87 70 56 29 15 23 18 21 22 35 59
36 33 30 31 28 27 28 32 30 29 26 23 24 25 11 14 27 21 27 21 23 29 22 29 55 79 82 88 97 97 97 95 89 65 21 17 19 19 20 26 55 83 91
38 38 34 34 30 31 29 36 36 33 28 26 24 25 11 16 24 24 25 21 18 17 21 28 50 70 89 97 97 97 96 97 95 67 17 18 22 31 40 62 63 77 56
40 42 38 38 35 35 34 37 40 37 33 30 28 25 10 8 10 17 22 26 25 31 33 39 46 56 93 97 97 97 97 97 70 67 20 20 29 35 47 65 96 92 78
39 43 37 41 39 40 37 39 39 42 38 33 29 22 8 8 9 21 17 27 27 30 42 46 85 87 72 96 96 96 97 94 76 55 29 20 25 37 53 91 94 83 74
37 46 32 42 44 43 41 39 41 47 43 38 30 18 10 10 10 29 25 19 31 25 30 50 87 98 84 93 95 96 97 95 66 38 36 19 29 50 61 92 75 74 82
35 45 32 44 44 47 44 38 40 45 50 41 34 18 16 22 22 25 29 27 21 24 29 81 95 88 90 98 97 95 96 69 83 68 30 35 43 55 70 91 82 90 89
37 39 33 38 32 44 49 44 43 47 52 45 36 18 20 22 22 22 23 28 27 27 30 94 96 97 95 99 96 95 97 95 91 71 60 69 79 75 84 93 87 89 89
32 38 30 36 31 32 50 52 49 51 53 51 38 19 21 21 21 21 22 27 26 28 38 97 96 98 97 96 96 98 96 96 81 83 85 90 95 98 91 91 95 82 89
26 24 24 29 35 25 34 55 54 54 56 57 44 19 21 20 19 19 23 26 28 26 30 97 93 96 97 96 96 98 98 97 82 60 78 91 89 94 94 88 80 78 82
28 29 26 30 33 24 28 57 58 59 55 61 48 20 19 17 16 16 15 15 30 27 38 95 96 96 97 96 95 96 95 96 97 86 92 94 98 95 94 89 80 75 70
23 23 22 25 32 24 26 59 55 65 60 63 51 22 18 16 14 13 12 15 33 24 92 74 89 96 96 97 98 96 97 97 95 91 98 87 85 81 77 83 79 83 94
19 17 14 14 20 21 24 38 47 59 68 66 55 24 19 15 13 12 10 11 31 29 31 32 90 96 97 97 96 96 96 96 100 100 96 81 93 95 91 93 85 94 94
13 12 10 11 11 14 18 35 51 59 69 70 61 25 20 14 12 14 14 13 36 32 96 37 97 96 96 96 98 95 96 95 96 96 90 80 90 90 83 86 91 91 88
10 8 8 8 9 13 17 43 49 61 73 76 61 26 19 13 12 14 15 14 38 34 78 75 96 94 97 96 98 96 97 96 92 94 93 95 84 92 84 86 97 92 92
10 9 7 6 6 10 18 47 63 90 78 75 66 29 17 12 12 14 14 15 37 36 88 92 96 89 96 96 96 96 96 97 98 97 97 95 92 90 92 96 94 96 98

GFSSE_500_rhum_114.txt.gz
RH
13 10 9 8 6 5 5 5 5 5 5 5 6 6 5 4 3 3 3 4 5 4 3 2 5 12 15 15 24 31 32 28 28 38 44 69 48 49 47 42 39 41 48
10 8 9 9 8 8 7 7 7 6 6 6 7 7 7 5 3 3 4 5 4 5 5 5 5 4 9 13 14 19 14 16 15 16 20 59 49 53 49 48 39 51 41
7 9 8 8 8 8 8 8 8 7 7 8 8 8 6 4 4 5 6 6 4 6 9 14 21 14 7 9 15 17 15 15 18 23 39 47 54 56 59 55 40 50 39
9 8 7 8 8 7 8 9 9 9 9 9 9 8 6 6 6 6 6 6 6 6 17 20 22 38 33 14 12 24 21 19 22 35 50 55 63 60 62 65 57 53 33
9 7 5 6 7 7 8 10 11 12 12 10 10 9 9 9 9 9 8 7 6 6 24 36 48 70 75 54 22 20 28 26 28 37 55 67 66 67 68 68 56 57 50
9 5 4 4 6 7 9 11 11 12 13 12 10 10 11 11 11 11 11 16 21 12 19 35 48 97 95 92 52 30 33 26 30 44 64 77 68 72 68 66 58 34 24
9 5 4 5 6 7 8 10 11 12 14 13 12 12 12 15 19 21 16 18 23 36 37 47 88 67 40 74 91 37 30 32 37 48 68 78 78 75 63 60 58 25 34
11 6 4 5 6 7 9 10 10 12 13 15 15 15 15 22 42 52 38 36 35 40 61 56 39 31 40 56 85 40 26 29 32 56 86 68 80 72 62 55 56 17 30
15 10 5 5 6 7 10 11 9 12 14 14 17 18 18 24 26 36 57 56 69 56 53 59 64 42 75 65 96 95 68 34 34 44 70 73 76 67 63 34 40 30 38
17 12 7 7 7 7 8 14 12 12 14 16 18 20 22 21 22 29 28 36 46 62 63 26 22 46 58 96 90 95 96 73 25 94 65 68 81 72 62 39 31 38 30
18 16 9 9 10 9 9 12 15 17 19 20 22 24 25 24 20 21 24 24 25 26 51 47 40 64 51 67 67 81 96 92 70 66 52 55 82 84 67 56 51 22 24
18 19 15 11 11 13 12 12 14 17 21 25 27 30 28 27 24 24 34 38 43 41 25 33 27 45 53 31 44 60 89 96 91 91 95 54 62 85 79 61 55 20 24
21 18 21 19 15 17 14 12 15 19 21 26 29 33 32 31 27 25 24 21 30 47 51 49 35 27 26 21 26 45 67 90 94 97 96 91 85 89 88 60 46 16 18
22 21 21 24 22 16 17 16 16 19 20 29 31 35 36 36 32 23 15 18 20 32 29 41 37 25 35 35 40 38 59 70 76 92 92 94 96 93 76 48 19 23 20
18 23 25 27 27 22 20 18 14 29 19 25 34 37 39 40 38 26 18 18 28 29 38 38 34 42 51 57 56 52 55 62 83 94 96 94 96 87 75 37 29 28 25
26 21 19 31 31 27 25 20 20 21 27 13 30 38 40 43 42 31 19 13 17 31 56 62 49 43 47 52 51 55 61 70 97 96 96 96 98 92 69 50 27 24 37
31 38 22 24 31 30 28 26 20 21 27 20 15 35 43 45 44 37 24 15 14 23 51 65 59 63 42 50 51 67 82 96 97 97 92 96 98 96 80 63 25 30 36
37 37 33 23 26 32 28 29 26 26 18 21 17 20 44 46 51 43 33 18 17 18 27 29 36 44 38 37 36 96 99 97 97 89 90 95 94 96 78 53 28 28 37
39 40 37 26 24 38 36 31 26 34 26 22 12 14 36 45 52 50 41 23 18 19 16 14 18 25 32 37 55 95 97 92 100 90 96 95 97 81 54 47 38 29 41
37 44 39 40 38 32 44 33 23 29 33 24 17 12 18 45 55 56 51 35 19 18 16 13 13 14 27 37 65 90 97 96 96 95 97 87 97 86 61 39 42 32 44
35 38 42 47 40 32 31 37 33 24 32 28 23 16 15 29 53 63 59 46 23 18 16 14 12 11 20 32 82 93 97 98 96 91 96 98 95 79 55 42 35 53 78
39 39 45 46 42 37 36 38 32 27 32 30 25 18 21 27 33 58 65 55 28 20 16 13 12 12 23 32 87 96 96 94 84 84 88 98 97 73 86 65 45 74 85
39 43 43 36 29 34 31 24 22 21 27 24 28 21 18 25 15 54 69 64 31 20 15 13 12 13 19 51 96 96 96 84 98 87 94 97 96 95 82 85 87 92 97
37 43 36 29 22 23 22 21 17 20 18 21 20 16 9 17 13 34 71 62 31 20 15 13 12 12 16 43 92 96 97 97 97 97 97 98 97 96 96 85 80 94 98
44 43 36 27 24 29 32 27 21 16 13 12 13 11 8 13 14 21 72 60 33 19 14 12 12 12 13 26 62 66 97 96 95 97 97 96 96 97 97 97 95 96 96
51 42 36 26 29 35 34 32 28 16 10 8 8 10 10 11 11 14 76 65 32 17 13 11 11 14 17 19 86 88 94 97 96 96 96 95 96 97 94 98 93 90 82

GFSSE_500_rhum_117.txt.gz
RH
11 9 8 8 8 7 7 6 6 6 5 6 6 6 6 6 6 4 4 4 4 5 5 4 4 7 11 19 22 31 33 41 50 51 55 96 72 60 54 54 60 42 48
13 8 7 8 9 9 8 7 7 7 6 6 5 5 6 7 6 5 3 4 6 6 5 5 4 4 8 11 19 21 26 30 38 37 31 34 41 61 44 50 49 45 42
9 9 8 6 7 7 8 8 8 8 8 8 8 7 7 7 6 6 6 7 7 7 6 6 8 10 10 6 6 16 19 21 20 15 22 21 27 51 45 51 51 47 45
10 10 8 6 6 6 6 8 8 8 8 9 10 10 9 8 8 8 8 9 9 8 6 8 15 24 28 30 24 7 8 16 16 14 19 23 32 42 49 54 60 56 52
10 11 8 7 5 6 5 6 6 8 9 9 10 10 10 10 10 10 10 10 10 11 13 10 10 20 40 79 85 47 12 9 20 24 30 42 49 65 69 66 70 68 59
12 12 8 6 5 5 4 5 7 7 9 10 11 11 11 11 13 16 18 15 14 17 26 42 61 66 61 80 53 61 63 19 28 32 50 44 56 64 73 70 70 64 57
10 12 8 4 4 5 5 6 6 6 7 10 12 14 14 14 14 20 39 45 28 32 36 45 52 49 62 73 42 40 72 52 35 42 64 74 71 75 76 75 72 66 46
11 11 7 5 4 5 6 6 7 7 7 8 11 14 17 17 21 27 25 40 54 55 66 63 53 57 57 30 35 47 68 41 46 55 88 83 74 80 80 71 56 55 38
11 12 8 5 4 4 6 6 6 7 7 8 10 14 19 21 21 20 22 30 35 36 56 64 65 44 36 32 43 71 88 79 27 48 59 95 90 88 85 74 60 42 33
11 13 9 6 5 5 5 6 6 6 6 8 8 12 18 23 24 23 20 21 23 33 42 38 64 51 31 33 55 87 99 90 85 48 52 82 92 89 81 70 57 23 20
12 13 10 7 6 7 8 7 6 6 6 7 9 10 16 23 27 26 23 23 32 37 43 34 37 47 34 54 59 75 72 86 95 86 88 97 98 84 84 77 59 32 30
13 18 14 10 9 8 8 9 9 8 8 8 9 12 17 24 30 32 28 22 20 20 32 42 44 45 40 35 47 34 36 60 90 100 91 87 90 62 82 86 66 50 48
13 16 20 17 13 13 12 11 13 12 9 11 10 12 18 25 30 33 33 24 15 17 22 29 35 46 40 22 23 20 17 36 69 96 95 97 91 74 68 94 78 57 51
20 19 21 21 20 19 17 14 17 17 13 12 12 12 17 24 29 32 38 27 17 15 24 26 31 35 24 31 28 37 37 36 50 80 96 96 96 95 89 89 82 58 42
15 18 20 23 26 24 19 23 22 21 16 15 15 13 17 21 24 28 38 31 20 13 14 35 38 48 52 46 55 55 56 50 43 66 70 79 94 96 98 96 87 26 39
17 17 23 27 28 26 25 25 26 26 21 17 18 15 14 17 23 30 41 38 25 16 11 30 53 54 48 44 37 50 66 68 59 61 60 84 97 97 94 97 72 61 44
24 20 18 22 30 36 28 25 24 31 26 21 22 20 17 14 18 32 43 47 33 20 16 15 28 36 46 52 48 40 34 60 54 62 68 92 96 97 96 97 91 53 21
31 26 22 17 23 30 38 32 27 31 27 25 27 21 18 15 14 20 41 50 44 28 18 17 15 15 23 27 34 31 36 55 99 99 100 98 95 97 95 97 92 23 21
37 40 33 25 23 27 32 43 32 29 32 31 36 26 17 15 10 11 29 46 52 41 23 18 16 14 13 14 15 22 30 61 97 95 96 97 97 95 96 97 81 45 68
49 50 65 37 30 28 36 39 38 32 25 32 38 33 22 21 15 12 15 36 49 54 34 21 18 16 13 12 11 14 33 60 94 99 93 94 95 92 96 96 64 38 29
53 49 43 37 32 34 43 44 40 32 32 27 28 36 28 30 27 22 13 21 44 60 47 26 20 17 13 13 13 15 35 64 87 96 100 95 89 97 93 96 43 43 27
66 54 45 40 36 37 41 41 40 38 30 35 33 23 32 33 34 31 18 12 30 63 61 33 20 16 13 12 14 15 28 64 74 87 88 87 96 97 96 93 51 39 26
65 53 47 42 38 37 35 36 33 38 37 36 33 22 22 21 25 25 21 16 22 50 67 37 22 16 14 11 13 14 62 83 96 98 77 82 92 97 96 94 71 49 29
75 64 57 52 47 42 35 35 25 23 29 25 24 20 15 18 18 17 20 20 20 44 68 39 24 17 13 10 10 14 27 99 94 100 89 89 92 94 97 97 91 92 95
75 75 55 49 49 47 42 38 27 20 23 22 20 18 14 11 12 11 17 24 24 50 68 46 24 16 12 11 11 14 19 84 92 96 91 99 93 96 97 98 97 96 90
53 51 48 52 46 46 44 40 28 26 35 34 27 19 15 9 8 8 12 29 40 61 70 49 20 14 15 12 22 34 37 75 93 98 97 97 96 97 97 97 97 97 98